sat.trackr.live / text

‹ back to catalog

STARLINK-34442

NORAD 64672 · 2025-139J

PAYLOAD ACTIVE UNKNOWN

§ Identity

Operator
Country
US
Launch date
2025-06-28
Launch site
AFETR
Launch vehicle
Mass (kg)
RCS (m²)

Purposes: comms

External: N2YO · Heavens-Above · Gunter

§ Orbital elements

Epoch: 2026-05-25T03:25:56.812224Z

Period
93.85 min
Inclination
53.1599°
Eccentricity
0.0000384
Mean motion
15.34424605 rev/d
Perigee alt
462.4 km
Apogee alt
462.9 km
Semi-major
6,840.8 km
B*
5.7675e-4
RAAN
130.9150°
Arg perigee
32.5066°
Mean anomaly
327.5960°
Rev number
5,200

§ Raw data

STARLINK-344421 64672U 25139J   26145.14301866  .00019175  00000+0  57675-3 0  99972 64672  53.1599 130.9150 0000384  32.5066 327.5960 15.34424605 52008

JSON: /api/v1/satellites/64672 · /tle

For live sub-satellite position, see the globe view (requires WebGL).

§ Visibility from observer

Set your observer location to see the next 7 days of passes ≥ 10°. The values pass through the URL so the page stays shareable.

No JS? Fill the form by hand. The geolocation button needs JavaScript.